GW5269 Weather Reports


time (UTC)temp
F
wind
direction
speed
knots
gust
knots
rain 1hr
in
rain 24hr
in
rain mn
in
humidity
%
barometer
mb
20260507231334 50 180 0.9 1.7 0.00 0.03 0.03 59 1011.9
20260507230830 50 166 2.6 5.2 0.00 0.03 0.03 55 1012.0
20260507230327 50 186 0.9 2.6 0.00 0.03 0.03 57 1012.0
20260507225827 50 91 0.9 3.5 0.00 0.03 0.03 56 1012.0
20260507225323 51 288 3.5 7.0 0.00 0.03 0.03 53 1012.0
20260507224820 51 90 0.9 1.7 0.00 0.03 0.03 60 1012.3
20260507224316 51 123 2.6 3.5 0.00 0.03 0.03 60 1012.1
20260507223812 50 108 1.7 2.6 0.00 0.03 0.03 54 1011.9
20260507223308 51 293 3.5 12.2 0.00 0.03 0.03 57 1011.9
20260507222806 51 65 0.9 2.6 0.00 0.03 0.03 56 1011.9
20260507222305 51 167 2.6 2.6 0.00 0.03 0.03 58 1011.9
20260507221759 51 126 0.0 3.5 0.00 0.03 0.03 55 1012.0
20260507221255 51 26 0.0 1.7 0.00 0.03 0.03 56 1011.9
20260507220751 51 132 0.9 2.6 0.00 0.03 0.03 56 1011.6
20260507220250 51 241 0.9 3.5 0.00 0.03 0.03 56 1011.6
20260507215746 52 153 0.9 5.2 0.00 0.03 0.03 55 1011.7
20260507215244 53 118 0.9 3.5 0.00 0.03 0.03 55 1011.7
20260507214740 53 305 1.7 5.2 0.00 0.03 0.03 52 1011.5
20260507214238 52 174 1.7 2.6 0.00 0.03 0.03 54 1011.4
20260507213738 53 186 1.7 2.6 0.00 0.03 0.03 50 1011.5
20260507213231 56 193 0.9 1.7 0.00 0.03 0.03 46 1011.5
20260507212726 57 252 0.9 1.7 0.00 0.03 0.03 51 1011.5
20260507212223 55 95 1.7 1.7 0.00 0.03 0.03 53 1011.3
20260507211720 55 175 1.7 3.5 0.00 0.03 0.03 50 1011.5
20260507211216 56 113 1.7 5.2 0.00 0.03 0.03 51 1011.1
20260507210713 55 189 1.7 5.2 0.00 0.03 0.03 54 1011.3
20260507210210 56 260 0.9 1.7 0.00 0.03 0.03 56 1011.3
20260507205707 56 204 1.7 6.1 0.00 0.03 0.03 52 1011.2
20260507205203 54 155 0.0 2.6 0.00 0.03 0.03 55 1011.2
20260507204659 56 61 0.9 6.1 0.00 0.03 0.03 51 1011.3
20260507204157 57 155 2.6 2.6 0.00 0.03 0.03 56 1011.2
20260507203655 55 178 1.7 2.6 0.00 0.03 0.03 58 1011.5
20260507203152 57 174 0.9 6.1 0.00 0.03 0.03 62 1011.3
20260507202647 55 176 0.0 2.6 0.00 0.03 0.03 52 1011.5
20260507202144 54 84 0.9 2.6 0.00 0.03 0.03 56 1011.3
20260507201645 55 114 0.9 3.5 0.00 0.03 0.03 56 1011.6
20260507201142 55 100 0.9 6.1 0.00 0.03 0.03 56 1011.6
20260507200638 53 259 0.0 1.7 0.00 0.03 0.03 57 1011.6
20260507200134 54 161 2.6 6.1 0.00 0.03 0.03 55 1011.6
20260507195631 55 75 2.6 5.2 0.00 0.03 0.03 54 1011.9
20260507195128 58 131 3.5 6.1 0.00 0.03 0.03 52 1011.6
20260507194626 57 250 0.9 6.1 0.00 0.03 0.03 59 1011.6
20260507194120 55 102 0.9 2.6 0.00 0.03 0.03 49 1011.6
20260507193618 57 82 0.9 7.0 0.00 0.03 0.03 54 1011.8
20260507193115 57 289 3.5 6.1 0.00 0.03 0.03 53 1011.6
20260507192611 58 283 1.7 2.6 0.00 0.03 0.03 52 1011.9
20260507192108 57 158 3.5 6.1 0.00 0.03 0.03 51 1011.8
20260507191603 57 157 1.7 5.2 0.00 0.03 0.03 56 1011.9
20260507191100 54 193 0.0 6.1 0.00 0.03 0.03 54 1011.6
20260507190558 55 86 1.7 2.6 0.00 0.03 0.03 57 1011.6
20260507190056 57 64 1.7 3.5 0.00 0.03 0.03 50 1011.8
20260507185554 55 195 0.0 5.2 0.00 0.03 0.03 57 1011.8
20260507185051 54 48 0.9 5.2 0.00 0.03 0.03 57 1011.9
20260507184549 55 261 0.9 1.7 0.00 0.03 0.03 52 1012.0
20260507184047 54 262 0.9 6.1 0.00 0.03 0.03 56 1011.8
20260507183542 55 177 1.7 3.5 0.00 0.03 0.03 57 1011.9
20260507183039 56 127 0.9 1.7 0.00 0.03 0.03 50 1012.0
20260507182536 56 157 1.7 5.2 0.00 0.03 0.03 63 1011.9
20260507182032 56 138 1.7 3.5 0.00 0.03 0.03 51 1011.9
20260507181529 56 154 1.7 3.5 0.00 0.03 0.03 60 1012.1
20260507181025 56 202 2.6 2.6 0.00 0.03 0.03 57 1011.9
20260507180521 55 76 1.7 7.8 0.00 0.03 0.03 54 1011.9
20260507180019 54 95 0.9 2.6 0.00 0.03 0.03 56 1012.1
20260507175515 56 339 2.6 3.5 0.00 0.03 0.03 54 1012.1
20260507175012 56 195 0.0 6.1 0.00 0.03 0.03 59 1012.3
20260507174509 56 141 1.7 3.5 0.00 0.03 0.03 64 1012.1
20260507174007 54 54 0.9 1.7 0.00 0.03 0.03 55 1012.1
20260507173504 56 177 2.6 7.0 0.00 0.03 0.03 64 1012.4
20260507173001 57 177 0.9 1.7 0.00 0.03 0.03 58 1012.4
20260507172457 56 187 0.9 2.6 0.00 0.03 0.03 58 1012.4
20260507171954 55 109 1.7 1.7 0.00 0.03 0.03 66 1012.5
20260507171449 55 218 1.7 3.5 0.00 0.03 0.03 60 1012.5
20260507170947 55 51 1.7 2.6 0.00 0.03 0.03 51 1012.6
20260507170443 53 64 2.6 3.5 0.00 0.03 0.03 62 1012.5
20260507165940 53 250 2.6 3.5 0.00 0.03 0.03 68 1012.7
20260507165436 53 304 3.5 6.1 0.00 0.03 0.03 61 1012.8
20260507164931 53 193 6.1 8.7 0.00 0.03 0.03 64 1012.8
20260507164429 53 89 0.9 2.6 0.00 0.03 0.03 55 1012.8
20260507163926 54 221 2.6 9.6 0.00 0.03 0.03 64 1013.0
20260507163423 53 50 0.0 0.9 0.00 0.03 0.03 65 1013.0
20260507162920 53 94 0.9 2.6 0.00 0.03 0.03 72 1012.9
20260507162415 51 251 0.9 3.5 0.00 0.03 0.03 68 1013.1
20260507161913 52 115 1.7 2.6 0.00 0.03 0.03 58 1013.2
20260507161409 53 318 0.9 1.7 0.00 0.03 0.03 60 1013.3
20260507160906 53 151 0.0 1.7 0.00 0.03 0.03 63 1013.2
20260507160401 53 62 0.9 1.7 0.00 0.03 0.03 64 1013.2
20260507155858 52 64 4.3 7.0 0.00 0.03 0.03 62 1013.1
20260507155354 54 148 1.7 2.6 0.00 0.03 0.03 64 1013.1
20260507154850 53 227 0.9 1.7 0.00 0.03 0.03 71 1013.2
20260507154348 52 36 1.7 2.6 0.00 0.03 0.03 61 1013.1
20260507153845 52 251 0.9 2.6 0.00 0.03 0.03 67 1013.2
20260507153341 53 68 1.7 2.6 0.00 0.03 0.03 62 1013.2
20260507152838 52 66 0.0 2.6 0.00 0.03 0.03 64 1013.4
20260507152334 51 301 0.0 1.7 0.00 0.03 0.03 72 1013.3
20260507151830 51 81 0.9 5.2 0.00 0.03 0.03 69 1013.7
20260507151327 51 217 1.7 2.6 0.00 0.03 0.03 75 1013.3
20260507150824 50 89 0.9 1.7 0.00 0.03 0.03 70 1013.3
20260507150320 50 251 0.9 2.6 0.00 0.03 0.03 74 1013.6
20260507145816 50 168 1.7 1.7 0.00 0.03 0.03 77 1013.6
20260507145313 49 122 5.2 6.1 0.00 0.03 0.03 70 1013.6
20260507144810 49 129 1.7 2.6 0.00 0.03 0.03 71 1014.0
20260507144307 50 52 0.9 5.2 0.00 0.03 0.03 70 1014.0
20260507143804 50 270 0.9 2.6 0.00 0.03 0.03 74 1014.0
20260507143301 50 286 0.9 1.7 0.00 0.03 0.03 75 1014.0
20260507142757 50 182 2.6 3.5 0.00 0.03 0.03 67 1014.1
20260507142254 49 123 0.0 6.1 0.00 0.03 0.03 75 1014.0
20260507141750 49 247 1.7 5.2 0.00 0.03 0.03 77 1014.2
20260507141247 48 206 0.9 2.6 0.00 0.03 0.03 82 1014.2
20260507140743 49 60 0.9 0.9 0.00 0.03 0.03 79 1014.1
20260507140241 48 222 0.0 0.9 0.00 0.03 0.03 77 1014.2
20260507135738 47 256 0.0 0.9 0.00 0.03 0.03 79 1014.1
20260507135235 47 180 1.7 2.6 0.00 0.03 0.03 82 1014.3
20260507134731 46 178 0.0 2.6 0.00 0.03 0.03 85 1014.5
20260507134228 46 145 0.0 1.7 0.00 0.03 0.03 87 1014.5
20260507133724 45 211 0.9 2.6 0.00 0.03 0.03 88 1014.5
20260507133221 44 122 0.0 1.7 0.00 0.03 0.03 89 1014.4
20260507132718 45 89 0.0 1.7 0.00 0.03 0.03 94 1014.5
20260507132215 43 287 0.9 0.9 0.00 0.03 0.03 96 1014.5
20260507131711 43 276 0.9 1.7 0.00 0.03 0.03 94 1014.5
20260507131209 43 170 0.0 0.0 0.00 0.03 0.03 98 1014.6
20260507130705 42 297 0.0 0.0 0.00 0.03 0.03 99 1014.6
20260507130203 41 182 0.0 0.9 0.00 0.03 0.03 99 1014.6
20260507125702 41 107 0.0 0.0 0.00 0.03 0.03 99 1014.6
20260507125159 40 103 0.0 0.9 0.00 0.03 0.03 99 1014.7
20260507124655 41 233 0.0 0.0 0.00 0.03 0.03 99 1014.7
20260507124153 40 240 0.0 0.0 0.00 0.03 0.03 99 1014.7
20260507123651 40 243 0.0 0.0 0.00 0.03 0.03 99 1015.0
20260507123148 40 243 0.0 0.0 0.00 0.03 0.03 99 1014.9
20260507122643 40 242 0.0 0.0 0.00 0.03 0.03 99 1014.9
20260507122139 40 245 0.0 0.0 0.00 0.03 0.03 99 1014.6
20260507121635 39 245 0.0 0.0 0.00 0.03 0.03 99 1014.6
20260507121131 39 232 0.0 0.0 0.00 0.03 0.03 99 1014.7
20260507120627 40 234 0.0 0.0 0.00 0.03 0.03 99 1014.5
20260507120124 40 230 0.0 0.0 0.00 0.03 0.03 99 1014.4
20260507115621 40 225 0.0 0.0 0.00 0.03 0.03 99 1014.6
20260507115116 41 166 0.0 0.0 0.00 0.03 0.03 99 1014.3
20260507114612 41 222 0.0 0.0 0.00 0.03 0.03 99 1014.4
20260507114110 41 224 0.0 0.0 0.00 0.03 0.03 99 1014.4
20260507113607 41 220 0.0 0.0 0.00 0.03 0.03 99 1014.3
20260507113104 41 219 0.0 0.0 0.00 0.03 0.03 99 1014.3
20260507112602 41 213 0.0 0.0 0.00 0.03 0.03 99 1014.1
20260507112058 40 224 0.0 0.0 0.00 0.03 0.03 99 1014.2
20260507111555 40 227 0.0 0.0 0.00 0.03 0.03 99 1014.1
20260507111052 40 230 0.0 0.0 0.00 0.03 0.03 99 1014.3
20260507110548 40 240 0.0 0.0 0.00 0.03 0.03 99 1014.1
20260507110045 40 240 0.0 0.0 0.00 0.03 0.03 99 1014.2
20260507105542 40 238 0.0 0.0 0.00 0.03 0.03 99 1013.9
20260507105038 40 238 0.0 0.0 0.00 0.03 0.03 99 1014.0
20260507104536 40 238 0.0 0.0 0.00 0.03 0.03 99 1013.8
20260507104032 40 237 0.0 0.0 0.00 0.03 0.03 99 1013.7
20260507103528 40 236 0.0 0.0 0.00 0.03 0.03 99 1013.7
20260507103025 40 236 0.0 0.0 0.00 0.03 0.03 99 1013.9
20260507102521 40 235 0.0 0.0 0.00 0.03 0.03 99 1013.9
20260507102017 40 245 0.0 0.0 0.00 0.03 0.03 99 1013.9
20260507101513 40 245 0.0 0.0 0.00 0.03 0.03 99 1013.6
20260507101010 40 245 0.0 0.0 0.00 0.03 0.03 99 1013.9
20260507100507 40 245 0.0 0.0 0.00 0.03 0.03 99 1013.7
20260507100005 40 245 0.0 0.0 0.00 0.03 0.03 99 1013.7
20260507095503 40 245 0.0 0.0 0.00 0.03 0.03 99 1013.6
20260507094959 40 245 0.0 0.0 0.00 0.03 0.03 99 1013.4
20260507094455 40 245 0.0 0.0 0.00 0.03 0.03 99 1013.3
20260507093953 40 245 0.0 0.0 0.00 0.03 0.03 99 1013.4
20260507093450 40 245 0.0 0.0 0.00 0.03 0.03 99 1013.4
20260507092948 40 245 0.0 0.0 0.00 0.03 0.03 99 1013.4
20260507092444 40 245 0.0 0.0 0.00 0.03 0.03 99 1013.3
20260507091941 39 245 0.0 0.0 0.00 0.03 0.03 99 1013.4
20260507091438 39 245 0.0 0.0 0.00 0.03 0.03 99 1013.7
20260507090933 39 245 0.0 0.0 0.00 0.03 0.03 99 1013.2
20260507090430 39 245 0.0 0.0 0.00 0.03 0.03 99 1013.2
20260507085926 39 245 0.0 0.0 0.00 0.03 0.03 99 1013.3
20260507085424 39 245 0.0 0.0 0.00 0.03 0.03 99 1013.3
20260507084921 39 245 0.0 0.0 0.00 0.03 0.03 99 1013.4
20260507084418 39 245 0.0 0.0 0.00 0.03 0.03 99 1013.4
20260507083915 39 245 0.0 0.0 0.00 0.03 0.03 99 1013.2
20260507083411 40 245 0.0 0.0 0.00 0.03 0.03 99 1013.4
20260507082907 40 245 0.0 0.0 0.00 0.03 0.03 99 1013.6
20260507082403 40 245 0.0 0.0 0.00 0.03 0.03 99 1013.4
20260507081900 40 244 0.0 0.0 0.00 0.03 0.03 99 1013.7
20260507081356 40 246 0.0 0.0 0.00 0.03 0.03 99 1013.6
20260507080853 40 260 0.0 0.0 0.00 0.03 0.03 99 1013.4
20260507080349 40 260 0.0 0.9 0.00 0.03 0.03 99 1013.4
20260507075845 41 346 0.0 0.9 0.00 0.03 0.03 99 1013.7
20260507075341 42 254 0.9 0.9 0.00 0.03 0.03 99 1013.6
20260507074837 42 352 0.9 2.6 0.00 0.03 0.03 99 1013.7
20260507074335 43 67 2.6 6.1 0.00 0.03 0.03 99 1013.3
20260507073832 44 312 0.9 0.9 0.05 0.03 0.03 99 1013.4
20260507073329 44 45 0.0 0.0 0.07 0.02 0.02 99 1013.4
20260507072826 44 45 0.0 0.0 0.07 0.02 0.02 99 1013.0
20260507072323 44 44 0.0 0.0 0.05 0.01 0.01 99 1013.3
20260507071821 44 46 0.0 0.0 0.05 0.01 0.01 99 1013.3
20260507071317 43 47 0.0 0.0 0.00 0.00 0.00 99 1013.4
20260507070814 43 46 0.0 0.0 0.00 0.00 0.00 99 1013.3
20260507070311 43 47 0.0 0.0 0.00 0.00 0.00 99 1013.4
20260507065808 43 47 0.0 0.0 0.00 0.00 0.00 99 1013.1
20260507065306 43 47 0.0 0.0 0.00 0.00 0.00 99 1013.1
20260507064802 43 47 0.0 0.0 0.00 0.00 0.00 99 1013.2
20260507064300 43 47 0.0 0.0 0.00 0.00 0.00 99 1013.6
20260507063758 43 48 0.0 0.0 0.00 0.00 0.00 99 1013.2
20260507063254 43 48 0.0 0.0 0.00 0.00 0.00 99 1013.4
20260507062751 43 48 0.0 0.0 0.00 0.00 0.00 99 1013.3
20260507062248 43 48 0.0 0.0 0.00 0.00 0.00 99 1013.8
20260507061746 43 337 0.0 0.0 0.00 0.00 0.00 99 1013.3
20260507061244 43 338 0.0 0.0 0.00 0.00 0.00 99 1013.6
20260507060742 43 338 0.0 0.0 0.00 0.00 0.00 99 1013.4
20260507060238 43 338 0.0 0.0 0.00 0.00 0.00 99 1013.4
20260507055735 43 338 0.0 0.0 0.00 0.00 0.00 99 1013.7
20260507055230 43 338 0.0 0.0 0.00 0.00 0.00 99 1013.8
20260507054726 44 340 0.0 0.0 0.00 0.00 0.00 99 1013.9
20260507054224 43 340 0.0 0.0 0.00 0.00 0.00 99 1014.0
20260507053721 43 341 0.0 0.0 0.00 0.00 0.00 99 1013.8
20260507053219 44 339 0.0 0.0 0.00 0.00 0.00 99 1014.3
20260507052718 44 339 0.0 0.0 0.00 0.00 0.00 99 1014.2
20260507052213 44 339 0.0 0.0 0.00 0.00 0.00 99 1014.2
20260507051711 43 339 0.0 0.0 0.00 0.00 0.00 99 1014.1
20260507051208 43 340 0.0 0.0 0.00 0.00 0.00 99 1014.2
20260507050704 43 340 0.0 0.0 0.00 0.00 0.00 99 1014.2
20260507050201 43 340 0.0 0.0 0.00 0.00 0.00 99 1014.1
20260507045658 43 340 0.0 0.0 0.00 0.00 0.00 99 1014.3
20260507045156 43 340 0.0 0.0 0.00 0.00 0.00 99 1014.0
20260507044652 43 341 0.0 0.0 0.00 0.00 0.00 99 1014.3
20260507044148 43 341 0.0 0.0 0.00 0.00 0.00 99 1014.0
20260507043644 43 341 0.0 0.0 0.00 0.00 0.00 99 1014.1
20260507043142 43 341 0.0 0.0 0.00 0.00 0.00 99 1014.0
20260507042638 43 341 0.0 0.0 0.00 0.00 0.00 99 1014.0
20260507042133 43 344 0.0 0.0 0.00 0.00 0.00 99 1014.0
20260507041630 44 344 0.0 0.0 0.00 0.00 0.00 99 1014.2
20260507041126 44 344 0.0 0.0 0.00 0.00 0.00 99 1014.0
20260507040624 44 345 0.0 0.0 0.00 0.00 0.00 99 1014.0
20260507040120 44 349 0.0 0.0 0.00 0.00 0.00 99 1014.0
20260507035616 44 353 0.0 0.0 0.00 1.00 1.00 99 1013.9
20260507035112 44 354 0.0 0.0 0.00 1.00 1.00 99 1014.0
20260507034609 44 5 0.0 0.0 0.00 1.00 1.00 99 1014.0
20260507034107 44 62 0.0 0.0 0.07 1.00 1.00 99 1013.9
20260507033605 44 278 0.0 0.9 0.07 1.00 1.00 99 1014.2
20260507033102 44 126 1.7 2.6 0.00 0.99 0.99 99 1013.9
20260507032559 44 299 0.0 2.6 0.05 0.99 0.99 99 1014.4
20260507032055 44 316 0.0 0.9 0.05 0.99 0.99 99 1014.4
20260507031552 44 72 0.0 0.9 0.00 0.98 0.98 99 1014.3
20260507031049 44 196 0.0 0.0 0.00 0.98 0.98 99 1014.2
20260507030545 44 195 0.0 0.0 0.00 0.98 0.98 99 1014.2
20260507030043 44 131 0.9 2.6 0.00 0.98 0.98 99 1014.2
20260507025540 44 309 0.0 0.0 0.00 0.98 0.98 99 1014.2
20260507025038 44 4 0.0 0.0 0.07 0.98 0.98 99 1013.8
20260507024536 44 287 0.0 0.0 0.14 0.98 0.98 99 1013.9
20260507024032 44 288 0.0 0.9 0.07 0.97 0.97 99 1013.4
20260507023527 44 239 0.0 0.0 0.05 0.96 0.96 99 1014.0
20260507023026 44 239 0.0 0.9 0.05 0.96 0.96 99 1014.4
20260507022522 44 103 1.7 1.7 0.00 0.95 0.95 99 1014.3
20260507022017 44 16 0.0 0.9 0.00 0.95 0.95 99 1014.1
20260507021514 44 284 0.9 2.6 0.07 0.95 0.95 99 1014.0
20260507021010 45 71 0.0 0.9 0.07 0.95 0.95 99 1014.0
20260507020508 44 343 0.0 0.0 0.00 0.94 0.94 99 1013.9
20260507020004 45 10 0.9 1.7 0.00 0.94 0.94 99 1014.0
20260507015503 44 321 0.0 2.6 0.00 0.94 0.94 99 1013.8
20260507015000 45 322 0.0 0.9 0.05 0.94 0.94 99 1013.3
20260507014456 45 68 0.9 2.6 0.05 0.94 0.94 99 1013.6
20260507013952 45 343 0.9 0.9 0.00 0.93 0.93 99 1013.2
20260507013449 45 16 0.9 1.7 0.07 0.93 0.93 99 1013.3
20260507012946 45 347 0.0 0.9 0.00 0.92 0.92 99 1013.7
20260507012443 46 351 0.9 1.7 0.05 0.92 0.92 99 1013.3
20260507011940 46 339 0.9 0.9 0.05 0.92 0.92 99 1013.3
20260507011437 46 121 0.0 2.6 0.00 0.91 0.91 99 1013.2
20260507010937 46 75 0.0 0.9 0.00 0.91 0.91 99 1013.7
20260507010432 46 154 0.0 0.0 0.00 0.91 0.91 99 1013.0
20260507005929 46 116 0.0 0.9 0.00 0.91 0.91 99 1013.1
20260507005427 47 46 0.9 1.7 0.00 0.91 0.91 99 1013.0
20260507004923 46 307 0.0 0.9 0.07 0.91 0.91 99 1012.8
20260507004420 46 44 0.0 1.7 0.07 0.91 0.91 99 1013.1
20260507003917 46 98 0.9 1.7 0.00 0.90 0.90 99 1013.2
20260507003412 47 11 0.0 0.0 0.00 0.90 0.90 99 1013.0
20260507002908 47 74 0.0 0.0 0.00 0.90 0.90 99 1012.7
20260507002404 47 165 0.0 0.0 0.00 0.90 0.90 99 1012.8
20260507001902 47 163 0.0 0.0 0.00 0.90 0.90 99 1012.9
20260507001358 47 163 0.0 0.0 0.00 0.90 0.90 99 1013.3
20260507000855 47 222 0.0 0.0 0.00 0.90 0.90 99 1013.6
20260507000350 47 197 0.0 0.9 0.00 0.90 0.90 99 1013.9
20260506235847 47 118 0.0 0.9 0.00 0.90 0.90 99 1013.7
20260506235344 47 249 0.0 0.0 0.00 0.90 0.90 99 1013.3
20260506234840 47 246 0.0 0.9 0.00 0.90 0.90 99 1013.4
20260506234338 47 238 0.0 1.7 0.00 0.90 0.90 99 1013.6
20260506233835 47 178 0.0 0.0 0.00 0.90 0.90 99 1013.3
20260506233331 47 213 0.0 0.9 0.00 0.90 0.90 99 1013.6
20260506232828 47 291 0.0 0.9 0.00 0.90 0.90 99 1013.1
20260506232324 47 166 0.0 0.9 0.00 0.90 0.90 99 1013.2
20260506231820 47 150 0.0 1.7 0.00 0.90 0.90 99 1013.3